Home > Weather > Los Angeles > Past weeks

Flag for USA Past Weather in Los Angeles, California, USA — Yesterday and Last 2 Weeks

Now
69 °F

Clear.


Feels Like: 69 °F
Forecast: 67 / 87 °F
Wind: 3 mph from West

Location: Los Angeles / USC Campus Downtown

Current Time: Jul 26, 2016 at 1:25:19 AM

Latest Report: Jul 26, 2016 at 12:47 AM


Visibility: 10 mi

Pressure: 29.90 "Hg

Humidity: 84%

Dew Point: 64 °F

Location of Los AngelesLocation

Past Weather in Los Angeles — Graph

°F

Los Angeles Temperature Yesterday

Maximum temperature yesterday: 90 °F (at 11:47 AM)
Minimum temperature yesterday: 69 °F (at 4:47 AM)
Average temperature yesterday: 77 °F

High & Low Weather Summary for the Past Weeks

 TemperatureHumidityPressure
High95 °F (Jul 22, 11:47 AM)91% (Jul 14, 5:47 AM)30.01 "Hg (Jul 14, 5:47 AM)
Low63 °F (Jul 15, 4:47 AM)23% (Jul 24, 3:47 PM)29.77 "Hg (Jul 23, 12:47 PM)
Average74 °F66%29.91 "Hg
* Reported Jul 10 11:47 PM — Jul 25 11:47 PM, Los Angeles, Weather by CustomWeather, © 2016

Note: Actual official high and low records may vary slightly from our data, if they occured in-between our weather recording intervals... More about our weather records

Advertising

Los Angeles Weather History for the Previous 24 Hours

Scroll right to see more
 ConditionsComfort  
Time TempWeatherWind HumidityBarometerVisibility
11:47 PM
Mon, Jul 25
69 °FClear.3 mph87%29.90 "Hg9 mi
10:47 PM73 °FClear.5 mph76%29.89 "Hg10 mi
9:47 PM72 °FClear.No wind78%29.90 "Hg10 mi
8:47 PM73 °FSunny.6 mph76%29.88 "Hg10 mi
7:47 PM77 °FSunny.5 mph56%29.87 "Hg10 mi
6:47 PM78 °FSunny.5 mph58%29.85 "Hg10 mi
5:47 PM82 °FSunny.6 mph53%29.84 "Hg10 mi
4:47 PM84 °FSunny.5 mph53%29.85 "Hg10 mi
3:47 PM85 °FSunny.5 mph50%29.86 "Hg10 mi
2:47 PM88 °FSunny.5 mph45%29.87 "Hg10 mi
1:47 PM87 °FSunny.5 mph46%29.89 "Hg10 mi
12:47 PM90 °FSunny.3 mph41%29.91 "Hg10 mi
11:47 AM90 °FSunny.3 mph34%29.93 "Hg10 mi
11:03 AM87 °FPassing clouds.N/A37%29.96 "Hg10 mi
10:47 AM86 °FSunny.No wind40%29.94 "Hg10 mi
9:47 AM83 °FSunny.No wind50%29.95 "Hg10 mi
8:47 AM77 °FSunny.No wind69%29.96 "Hg7 mi
7:47 AM72 °FSunny.No wind81%29.95 "Hg6 mi
6:47 AM70 °FFog.No wind87%29.92 "Hg6 mi
5:47 AM69 °FClear.No wind90%29.90 "Hg7 mi
4:47 AM69 °FClear.No wind90%29.90 "Hg7 mi
3:47 AM71 °FClear.No wind84%29.90 "Hg8 mi
2:47 AM70 °FClear.No wind87%29.90 "Hg7 mi
1:47 AM70 °FClear.No wind87%29.90 "Hg7 mi
Weather by CustomWeather, © 2016

See weather overviewHow to use our weather pages